Year,Month,Day,Hour,Minute,Value (Times are PST for temperature in C)
2006,07,08,00,00,15.20
2006,07,08,00,01,15.20
2006,07,08,00,02,15.20
2006,07,08,00,03,15.20
2006,07,08,00,04,15.10
2006,07,08,00,05,15.10
2006,07,08,00,06,15.10
2006,07,08,00,07,15.10
2006,07,08,00,08,15.10
2006,07,08,00,09,15.10
2006,07,08,00,10,15.10
2006,07,08,00,11,15.10
2006,07,08,00,12,15.00
2006,07,08,00,13,15.00
2006,07,08,00,14,15.00
2006,07,08,00,15,15.00
2006,07,08,00,16,15.00
2006,07,08,00,17,15.00
2006,07,08,00,18,15.00
2006,07,08,00,19,15.00
2006,07,08,00,20,15.00
2006,07,08,00,21,15.00
2006,07,08,00,22,15.00
2006,07,08,00,23,14.90
2006,07,08,00,24,14.90
2006,07,08,00,25,14.90
2006,07,08,00,26,14.90
2006,07,08,00,27,14.90
2006,07,08,00,28,14.90
2006,07,08,00,29,14.80
2006,07,08,00,30,14.80
2006,07,08,00,31,14.80
2006,07,08,00,32,14.80
2006,07,08,00,33,14.80
2006,07,08,00,34,14.80
2006,07,08,00,35,14.80
2006,07,08,00,36,14.70
2006,07,08,00,37,14.70
2006,07,08,00,38,14.70
2006,07,08,00,39,14.70
2006,07,08,00,40,14.70
2006,07,08,00,41,14.60
2006,07,08,00,42,14.60
2006,07,08,00,43,14.60
2006,07,08,00,44,14.60
2006,07,08,00,45,14.60
2006,07,08,00,46,14.60
2006,07,08,00,47,14.60
2006,07,08,00,48,14.50
2006,07,08,00,49,14.50
2006,07,08,00,50,14.50
2006,07,08,00,51,14.50
2006,07,08,00,52,14.50
2006,07,08,00,53,14.50
2006,07,08,00,54,14.50
2006,07,08,00,55,14.50
2006,07,08,00,56,14.50
2006,07,08,00,57,14.50
2006,07,08,00,58,14.50
2006,07,08,00,59,14.50
2006,07,08,01,00,14.50
2006,07,08,01,01,14.50
2006,07,08,01,02,14.50
2006,07,08,01,03,14.40
2006,07,08,01,04,14.40
2006,07,08,01,05,14.40
2006,07,08,01,06,14.40
2006,07,08,01,07,14.30
2006,07,08,01,08,14.30
2006,07,08,01,09,14.30
2006,07,08,01,10,14.20
2006,07,08,01,11,14.20
2006,07,08,01,12,14.20
2006,07,08,01,13,14.20
2006,07,08,01,14,14.20
2006,07,08,01,15,14.20
2006,07,08,01,16,14.20
2006,07,08,01,17,14.20
2006,07,08,01,18,14.10
2006,07,08,01,19,14.10
2006,07,08,01,20,14.10
2006,07,08,01,21,14.10
2006,07,08,01,22,14.10
2006,07,08,01,23,14.10
2006,07,08,01,24,14.10
2006,07,08,01,25,14.10
2006,07,08,01,26,14.10
2006,07,08,01,27,14.10
2006,07,08,01,28,14.10
2006,07,08,01,29,14.00
2006,07,08,01,30,14.00
2006,07,08,01,31,14.00
2006,07,08,01,32,14.00
2006,07,08,01,33,14.00
2006,07,08,01,34,14.10
2006,07,08,01,35,14.10
2006,07,08,01,36,14.10
2006,07,08,01,37,14.10
2006,07,08,01,38,14.10
2006,07,08,01,39,14.10
2006,07,08,01,40,14.10
2006,07,08,01,41,14.10
2006,07,08,01,42,14.10
2006,07,08,01,43,14.10
2006,07,08,01,44,14.10
2006,07,08,01,45,14.00
2006,07,08,01,46,14.00
2006,07,08,01,47,14.00
2006,07,08,01,48,14.00
2006,07,08,01,49,14.00
2006,07,08,01,50,14.00
2006,07,08,01,51,13.90
2006,07,08,01,52,13.90
2006,07,08,01,53,13.90
2006,07,08,01,54,13.90
2006,07,08,01,55,13.90
2006,07,08,01,56,13.80
2006,07,08,01,57,13.80
2006,07,08,01,58,13.70
2006,07,08,01,59,13.70
2006,07,08,02,00,13.70
2006,07,08,02,01,13.70
2006,07,08,02,02,13.70
2006,07,08,02,03,13.70
2006,07,08,02,04,13.60
2006,07,08,02,05,13.60
2006,07,08,02,06,13.60
2006,07,08,02,07,13.60
2006,07,08,02,08,13.50
2006,07,08,02,09,13.50
2006,07,08,02,10,13.50
2006,07,08,02,11,13.40
2006,07,08,02,12,13.40
2006,07,08,02,13,13.40
2006,07,08,02,14,13.40
2006,07,08,02,15,13.40
2006,07,08,02,16,13.40
2006,07,08,02,17,13.40
2006,07,08,02,18,13.50
2006,07,08,02,19,13.50
2006,07,08,02,20,13.50
2006,07,08,02,21,13.50
2006,07,08,02,22,13.50
2006,07,08,02,23,13.50
2006,07,08,02,24,13.50
2006,07,08,02,25,13.50
2006,07,08,02,26,13.50
2006,07,08,02,27,13.50
2006,07,08,02,28,13.50
2006,07,08,02,29,13.40
2006,07,08,02,30,13.40
2006,07,08,02,31,13.40
2006,07,08,02,32,13.30
2006,07,08,02,33,13.30
2006,07,08,02,34,13.30
2006,07,08,02,35,13.30
2006,07,08,02,36,13.30
2006,07,08,02,37,13.30
2006,07,08,02,38,13.30
2006,07,08,02,39,13.30
2006,07,08,02,40,13.30
2006,07,08,02,41,13.30
2006,07,08,02,42,13.30
2006,07,08,02,43,13.30
2006,07,08,02,44,13.30
2006,07,08,02,45,13.30
2006,07,08,02,46,13.30
2006,07,08,02,47,13.30
2006,07,08,02,48,13.50
2006,07,08,02,49,13.50
2006,07,08,02,50,13.60
2006,07,08,02,51,13.60
2006,07,08,02,52,13.70
2006,07,08,02,53,13.70
2006,07,08,02,54,13.70
2006,07,08,02,55,13.70
2006,07,08,02,56,13.80
2006,07,08,02,57,13.80
2006,07,08,02,58,13.80
2006,07,08,02,59,13.80
2006,07,08,03,00,13.80
2006,07,08,03,01,13.80
2006,07,08,03,02,13.90
2006,07,08,03,03,13.90
2006,07,08,03,04,13.80
2006,07,08,03,05,13.80
2006,07,08,03,06,13.80
2006,07,08,03,07,13.80
2006,07,08,03,08,13.70
2006,07,08,03,09,13.70
2006,07,08,03,10,13.70
2006,07,08,03,11,13.70
2006,07,08,03,12,13.70
2006,07,08,03,13,13.60
2006,07,08,03,14,13.60
2006,07,08,03,15,13.60
2006,07,08,03,16,13.60
2006,07,08,03,17,13.60
2006,07,08,03,18,13.60
2006,07,08,03,19,13.60
2006,07,08,03,20,13.60
2006,07,08,03,21,13.50
2006,07,08,03,22,13.50
2006,07,08,03,23,13.50
2006,07,08,03,24,13.50
2006,07,08,03,25,13.50
2006,07,08,03,26,13.40
2006,07,08,03,27,13.40
2006,07,08,03,28,13.40
2006,07,08,03,29,13.40
2006,07,08,03,30,13.40
2006,07,08,03,31,13.40
2006,07,08,03,32,13.30
2006,07,08,03,33,13.30
2006,07,08,03,34,13.30
2006,07,08,03,35,13.30
2006,07,08,03,36,13.20
2006,07,08,03,37,13.20
2006,07,08,03,38,13.20
2006,07,08,03,39,13.10
2006,07,08,03,40,13.10
2006,07,08,03,41,13.00
2006,07,08,03,42,13.00
2006,07,08,03,43,13.00
2006,07,08,03,44,13.00
2006,07,08,03,45,13.00
2006,07,08,03,46,13.00
2006,07,08,03,47,13.00
2006,07,08,03,48,13.10
2006,07,08,03,49,13.10
2006,07,08,03,50,13.10
2006,07,08,03,51,13.20
2006,07,08,03,52,13.20
2006,07,08,03,53,13.20
2006,07,08,03,54,13.20
2006,07,08,03,55,13.20
2006,07,08,03,56,13.30
2006,07,08,03,57,13.30
2006,07,08,03,58,13.30
2006,07,08,03,59,13.30
2006,07,08,04,00,13.30
2006,07,08,04,01,13.30
2006,07,08,04,02,13.30
2006,07,08,04,03,13.20
2006,07,08,04,04,13.10
2006,07,08,04,05,13.00
2006,07,08,04,06,12.90
2006,07,08,04,07,12.70
2006,07,08,04,08,12.60
2006,07,08,04,09,12.50
2006,07,08,04,10,12.50
2006,07,08,04,11,12.40
2006,07,08,04,12,12.40
2006,07,08,04,13,12.30
2006,07,08,04,14,12.30
2006,07,08,04,15,12.30
2006,07,08,04,16,12.30
2006,07,08,04,17,12.30
2006,07,08,04,18,12.30
2006,07,08,04,19,12.30
2006,07,08,04,20,12.40
2006,07,08,04,21,12.40
2006,07,08,04,22,12.40
2006,07,08,04,23,12.40
2006,07,08,04,24,12.50
2006,07,08,04,25,12.50
2006,07,08,04,26,12.50
2006,07,08,04,27,12.60
2006,07,08,04,28,12.60
2006,07,08,04,29,12.60
2006,07,08,04,30,12.60
2006,07,08,04,31,12.70
2006,07,08,04,32,12.70
2006,07,08,04,33,12.70
2006,07,08,04,34,12.70
2006,07,08,04,35,12.70
2006,07,08,04,36,12.70
2006,07,08,04,37,12.70
2006,07,08,04,38,12.70
2006,07,08,04,39,12.70
2006,07,08,04,40,12.60
2006,07,08,04,41,12.60
2006,07,08,04,42,12.60
2006,07,08,04,43,12.60
2006,07,08,04,44,12.60
2006,07,08,04,45,12.60
2006,07,08,04,46,12.50
2006,07,08,04,47,12.50
2006,07,08,04,48,12.50
2006,07,08,04,49,12.50
2006,07,08,04,50,12.40
2006,07,08,04,51,12.40
2006,07,08,04,52,12.40
2006,07,08,04,53,12.40
2006,07,08,04,54,12.40
2006,07,08,04,55,12.40
2006,07,08,04,56,12.40
2006,07,08,04,57,12.40
2006,07,08,04,58,12.40
2006,07,08,04,59,12.40
2006,07,08,05,00,12.40
2006,07,08,05,01,12.40
2006,07,08,05,02,12.40
2006,07,08,05,03,12.40
2006,07,08,05,04,12.40
2006,07,08,05,05,12.40
2006,07,08,05,06,12.40
2006,07,08,05,07,12.40
2006,07,08,05,08,12.40
2006,07,08,05,09,12.40
2006,07,08,05,10,12.40
2006,07,08,05,11,12.40
2006,07,08,05,12,12.40
2006,07,08,05,13,12.40
2006,07,08,05,14,12.40
2006,07,08,05,15,12.30
2006,07,08,05,16,12.30
2006,07,08,05,17,12.20
2006,07,08,05,18,12.10
2006,07,08,05,19,12.10
2006,07,08,05,20,12.10
2006,07,08,05,21,12.10
2006,07,08,05,22,12.10
2006,07,08,05,23,12.20
2006,07,08,05,24,12.20
2006,07,08,05,25,12.30
2006,07,08,05,26,12.30
2006,07,08,05,27,12.30
2006,07,08,05,28,12.30
2006,07,08,05,29,12.30
2006,07,08,05,30,12.30
2006,07,08,05,31,12.30
2006,07,08,05,32,12.30
2006,07,08,05,33,12.30
2006,07,08,05,34,12.30
2006,07,08,05,35,12.30
2006,07,08,05,36,12.30
2006,07,08,05,37,12.30
2006,07,08,05,38,12.30
2006,07,08,05,39,12.20
2006,07,08,05,40,12.20
2006,07,08,05,41,12.20
2006,07,08,05,42,12.20
2006,07,08,05,43,12.10
2006,07,08,05,44,12.10
2006,07,08,05,45,12.10
2006,07,08,05,46,12.10
2006,07,08,05,47,12.10
2006,07,08,05,48,12.10
2006,07,08,05,49,12.20
2006,07,08,05,50,12.20
2006,07,08,05,51,12.20
2006,07,08,05,52,12.20
2006,07,08,05,53,12.20
2006,07,08,05,54,12.20
2006,07,08,05,55,12.30
2006,07,08,05,56,12.30
2006,07,08,05,57,12.30
2006,07,08,05,58,12.30
2006,07,08,05,59,12.30
2006,07,08,06,00,12.30
2006,07,08,06,01,12.30
2006,07,08,06,02,12.30
2006,07,08,06,03,12.30
2006,07,08,06,04,12.40
2006,07,08,06,05,12.40
2006,07,08,06,06,12.40
2006,07,08,06,07,12.50
2006,07,08,06,08,12.50
2006,07,08,06,09,12.50
2006,07,08,06,10,12.60
2006,07,08,06,11,12.60
2006,07,08,06,12,12.70
2006,07,08,06,13,12.70
2006,07,08,06,14,12.70
2006,07,08,06,15,12.80
2006,07,08,06,16,12.80
2006,07,08,06,17,12.80
2006,07,08,06,18,12.80
2006,07,08,06,19,12.80
2006,07,08,06,20,12.80
2006,07,08,06,21,12.80
2006,07,08,06,22,12.80
2006,07,08,06,23,12.80
2006,07,08,06,24,12.80
2006,07,08,06,25,12.80
2006,07,08,06,26,12.80
2006,07,08,06,27,12.80
2006,07,08,06,28,12.80
2006,07,08,06,29,12.90
2006,07,08,06,30,12.90
2006,07,08,06,31,13.00
2006,07,08,06,32,13.00
2006,07,08,06,33,13.10
2006,07,08,06,34,13.10
2006,07,08,06,35,13.20
2006,07,08,06,36,13.30
2006,07,08,06,37,13.30
2006,07,08,06,38,13.40
2006,07,08,06,39,13.40
2006,07,08,06,40,13.50
2006,07,08,06,41,13.50
2006,07,08,06,42,13.50
2006,07,08,06,43,13.50
2006,07,08,06,44,13.50
2006,07,08,06,45,13.60
2006,07,08,06,46,13.70
2006,07,08,06,47,13.70
2006,07,08,06,48,13.70
2006,07,08,06,49,13.70
2006,07,08,06,50,13.80
2006,07,08,06,51,13.80
2006,07,08,06,52,13.90
2006,07,08,06,53,13.90
2006,07,08,06,54,14.00
2006,07,08,06,55,14.00
2006,07,08,06,56,14.10
2006,07,08,06,57,14.10
2006,07,08,06,58,14.10
2006,07,08,06,59,14.20
2006,07,08,07,00,14.20
2006,07,08,07,01,14.20
2006,07,08,07,02,14.30
2006,07,08,07,03,14.40
2006,07,08,07,04,14.40
2006,07,08,07,05,14.50
2006,07,08,07,06,14.50
2006,07,08,07,07,14.50
2006,07,08,07,08,14.50
2006,07,08,07,09,14.60
2006,07,08,07,10,14.60
2006,07,08,07,11,14.60
2006,07,08,07,12,14.60
2006,07,08,07,13,14.70
2006,07,08,07,14,14.70
2006,07,08,07,15,14.80
2006,07,08,07,16,14.80
2006,07,08,07,17,15.00
2006,07,08,07,18,15.10
2006,07,08,07,19,15.30
2006,07,08,07,20,15.30
2006,07,08,07,21,15.40
2006,07,08,07,22,15.40
2006,07,08,07,23,15.50
2006,07,08,07,24,15.50
2006,07,08,07,25,15.50
2006,07,08,07,26,15.60
2006,07,08,07,27,15.60
2006,07,08,07,28,15.70
2006,07,08,07,29,15.80
2006,07,08,07,30,15.90
2006,07,08,07,31,16.00
2006,07,08,07,32,16.10
2006,07,08,07,33,16.10
2006,07,08,07,34,16.10
2006,07,08,07,35,16.20
2006,07,08,07,36,16.20
2006,07,08,07,37,16.20
2006,07,08,07,38,16.20
2006,07,08,07,39,16.30
2006,07,08,07,40,16.30
2006,07,08,07,41,16.40
2006,07,08,07,42,16.40
2006,07,08,07,43,16.50
2006,07,08,07,44,16.70
2006,07,08,07,45,16.80
2006,07,08,07,46,16.90
2006,07,08,07,47,17.00
2006,07,08,07,48,17.00
2006,07,08,07,49,17.20
2006,07,08,07,50,17.30
2006,07,08,07,51,17.30
2006,07,08,07,52,17.40
2006,07,08,07,53,17.50
2006,07,08,07,54,17.50
2006,07,08,07,55,17.50
2006,07,08,07,56,17.40
2006,07,08,07,57,17.30
2006,07,08,07,58,17.20
2006,07,08,07,59,17.20
2006,07,08,08,00,17.00
2006,07,08,08,01,17.00
2006,07,08,08,02,16.90
2006,07,08,08,03,16.90
2006,07,08,08,04,16.90
2006,07,08,08,05,16.90
2006,07,08,08,06,16.90
2006,07,08,08,07,17.00
2006,07,08,08,08,17.00
2006,07,08,08,09,17.00
2006,07,08,08,10,17.00
2006,07,08,08,11,17.10
2006,07,08,08,12,17.10
2006,07,08,08,13,17.20
2006,07,08,08,14,17.30
2006,07,08,08,15,17.30
2006,07,08,08,16,17.40
2006,07,08,08,17,17.60
2006,07,08,08,18,17.70
2006,07,08,08,19,17.90
2006,07,08,08,20,18.20
2006,07,08,08,21,18.30
2006,07,08,08,22,18.50
2006,07,08,08,23,18.60
2006,07,08,08,24,18.70
2006,07,08,08,25,18.80
2006,07,08,08,26,18.80
2006,07,08,08,27,18.90
2006,07,08,08,28,18.90
2006,07,08,08,29,19.00
2006,07,08,08,30,19.10
2006,07,08,08,31,19.10
2006,07,08,08,32,19.10
2006,07,08,08,33,19.10
2006,07,08,08,34,19.10
2006,07,08,08,35,19.10
2006,07,08,08,36,19.10
2006,07,08,08,37,19.20
2006,07,08,08,38,19.20
2006,07,08,08,39,19.30
2006,07,08,08,40,19.40
2006,07,08,08,41,19.50
2006,07,08,08,42,19.50
2006,07,08,08,43,19.50
2006,07,08,08,44,19.60
2006,07,08,08,45,19.60
2006,07,08,08,46,19.70
2006,07,08,08,47,19.70
2006,07,08,08,48,19.70
2006,07,08,08,49,19.80
2006,07,08,08,50,19.80
2006,07,08,08,51,19.90
2006,07,08,08,52,19.90
2006,07,08,08,53,20.00
2006,07,08,08,54,20.10
2006,07,08,08,55,20.00
2006,07,08,08,56,20.00
2006,07,08,08,57,20.10
2006,07,08,08,58,20.10
2006,07,08,08,59,20.20
2006,07,08,09,00,20.20
2006,07,08,09,01,20.30
2006,07,08,09,02,20.40
2006,07,08,09,03,20.50
2006,07,08,09,04,20.50
2006,07,08,09,05,20.50
2006,07,08,09,06,20.60
2006,07,08,09,07,20.70
2006,07,08,09,08,20.80
2006,07,08,09,09,20.80
2006,07,08,09,10,20.80
2006,07,08,09,11,20.90
2006,07,08,09,12,20.90
2006,07,08,09,13,21.00
2006,07,08,09,14,21.20
2006,07,08,09,15,21.30
2006,07,08,09,16,21.30
2006,07,08,09,17,21.40
2006,07,08,09,18,21.40
2006,07,08,09,19,21.50
2006,07,08,09,20,21.60
2006,07,08,09,21,21.60
2006,07,08,09,22,21.60
2006,07,08,09,23,21.60
2006,07,08,09,24,21.60
2006,07,08,09,25,21.60
2006,07,08,09,26,21.70
2006,07,08,09,27,21.80
2006,07,08,09,28,21.80
2006,07,08,09,29,21.90
2006,07,08,09,30,22.00
2006,07,08,09,31,22.00
2006,07,08,09,32,22.00
2006,07,08,09,33,22.00
2006,07,08,09,34,21.90
2006,07,08,09,35,21.70
2006,07,08,09,36,21.40
2006,07,08,09,37,21.20
2006,07,08,09,38,20.90
2006,07,08,09,39,20.70
2006,07,08,09,40,20.50
2006,07,08,09,41,20.30
2006,07,08,09,42,20.20
2006,07,08,09,43,20.10
2006,07,08,09,44,20.00
2006,07,08,09,45,19.80
2006,07,08,09,46,19.80
2006,07,08,09,47,19.70
2006,07,08,09,48,19.70
2006,07,08,09,49,19.70
2006,07,08,09,50,19.70
2006,07,08,09,51,19.80
2006,07,08,09,52,19.80
2006,07,08,09,53,19.80
2006,07,08,09,54,19.80
2006,07,08,09,55,19.80
2006,07,08,09,56,19.70
2006,07,08,09,57,19.70
2006,07,08,09,58,19.70
2006,07,08,09,59,19.80
2006,07,08,10,00,19.80
2006,07,08,10,01,19.80
2006,07,08,10,02,19.80
2006,07,08,10,03,19.90
2006,07,08,10,04,19.90
2006,07,08,10,05,20.00
2006,07,08,10,06,20.20
2006,07,08,10,07,20.20
2006,07,08,10,08,20.30
2006,07,08,10,09,20.40
2006,07,08,10,10,20.40
2006,07,08,10,11,20.50
2006,07,08,10,12,20.50
2006,07,08,10,13,20.50
2006,07,08,10,14,20.50
2006,07,08,10,15,20.50
2006,07,08,10,16,20.50
2006,07,08,10,17,20.40
2006,07,08,10,18,20.40
2006,07,08,10,19,20.40
2006,07,08,10,20,20.40
2006,07,08,10,21,20.40
2006,07,08,10,22,20.40
2006,07,08,10,23,20.40
2006,07,08,10,24,20.50
2006,07,08,10,25,20.60
2006,07,08,10,26,20.60
2006,07,08,10,27,20.70
2006,07,08,10,28,20.80
2006,07,08,10,29,20.80
2006,07,08,10,30,20.80
2006,07,08,10,31,20.80
2006,07,08,10,32,20.80
2006,07,08,10,33,20.70
2006,07,08,10,34,20.70
2006,07,08,10,35,20.70
2006,07,08,10,36,20.60
2006,07,08,10,37,20.70
2006,07,08,10,38,20.70
2006,07,08,10,39,20.70
2006,07,08,10,40,20.70
2006,07,08,10,41,20.70
2006,07,08,10,42,20.70
2006,07,08,10,43,20.70
2006,07,08,10,44,20.60
2006,07,08,10,45,20.60
2006,07,08,10,46,20.60
2006,07,08,10,47,20.60
2006,07,08,10,48,20.70
2006,07,08,10,49,20.70
2006,07,08,10,50,20.70
2006,07,08,10,51,20.80
2006,07,08,10,52,20.80
2006,07,08,10,53,20.90
2006,07,08,10,54,21.00
2006,07,08,10,55,21.00
2006,07,08,10,56,21.00
2006,07,08,10,57,21.00
2006,07,08,10,58,20.80
2006,07,08,10,59,20.80
2006,07,08,11,00,20.80
2006,07,08,11,01,20.70
2006,07,08,11,02,20.70
2006,07,08,11,03,20.70
2006,07,08,11,04,20.50
2006,07,08,11,05,20.40
2006,07,08,11,06,20.30
2006,07,08,11,07,20.20
2006,07,08,11,08,20.20
2006,07,08,11,09,20.20
2006,07,08,11,10,20.20
2006,07,08,11,11,20.20
2006,07,08,11,12,20.20
2006,07,08,11,13,20.30
2006,07,08,11,14,20.30
2006,07,08,11,15,20.40
2006,07,08,11,16,20.40
2006,07,08,11,17,20.40
2006,07,08,11,18,20.40
2006,07,08,11,19,20.40
2006,07,08,11,20,20.30
2006,07,08,11,21,20.20
2006,07,08,11,22,20.20
2006,07,08,11,23,20.30
2006,07,08,11,24,20.30
2006,07,08,11,25,20.40
2006,07,08,11,26,20.50
2006,07,08,11,27,20.60
2006,07,08,11,28,20.70
2006,07,08,11,29,20.80
2006,07,08,11,30,20.80
2006,07,08,11,31,20.80
2006,07,08,11,32,20.80
2006,07,08,11,33,21.10
2006,07,08,11,34,21.20
2006,07,08,11,35,21.20
2006,07,08,11,36,21.30
2006,07,08,11,37,21.30
2006,07,08,11,38,21.40
2006,07,08,11,39,21.50
2006,07,08,11,40,21.70
2006,07,08,11,41,21.90
2006,07,08,11,42,22.00
2006,07,08,11,43,22.00
2006,07,08,11,44,22.10
2006,07,08,11,45,22.10
2006,07,08,11,46,22.10
2006,07,08,11,47,22.10
2006,07,08,11,48,22.10
2006,07,08,11,49,22.00
2006,07,08,11,50,21.90
2006,07,08,11,51,21.80
2006,07,08,11,52,21.80
2006,07,08,11,53,21.80
2006,07,08,11,54,21.80
2006,07,08,11,55,21.80
2006,07,08,11,56,21.80
2006,07,08,11,57,22.00
2006,07,08,11,58,22.10
2006,07,08,11,59,22.20
2006,07,08,12,00,22.20
2006,07,08,12,01,22.30
2006,07,08,12,02,22.40
2006,07,08,12,03,22.40
2006,07,08,12,04,22.50
2006,07,08,12,05,22.60
2006,07,08,12,06,22.80
2006,07,08,12,07,22.90
2006,07,08,12,08,22.90
2006,07,08,12,09,23.00
2006,07,08,12,10,23.20
2006,07,08,12,11,23.30
2006,07,08,12,12,23.40
2006,07,08,12,13,23.40
2006,07,08,12,14,23.50
2006,07,08,12,15,23.60
2006,07,08,12,16,23.70
2006,07,08,12,17,23.70
2006,07,08,12,18,23.70
2006,07,08,12,19,23.70
2006,07,08,12,20,23.70
2006,07,08,12,21,23.50
2006,07,08,12,22,23.40
2006,07,08,12,23,23.30
2006,07,08,12,24,23.20
2006,07,08,12,25,23.10
2006,07,08,12,26,23.00
2006,07,08,12,27,22.90
2006,07,08,12,28,22.90
2006,07,08,12,29,22.90
2006,07,08,12,30,23.20
2006,07,08,12,31,23.30
2006,07,08,12,32,23.30
2006,07,08,12,33,23.40
2006,07,08,12,34,23.40
2006,07,08,12,35,23.30
2006,07,08,12,36,23.40
2006,07,08,12,37,23.40
2006,07,08,12,38,23.40
2006,07,08,12,39,23.50
2006,07,08,12,40,23.60
2006,07,08,12,41,23.70
2006,07,08,12,42,23.70
2006,07,08,12,43,23.70
2006,07,08,12,44,23.70
2006,07,08,12,45,23.80
2006,07,08,12,46,23.90
2006,07,08,12,47,23.80
2006,07,08,12,48,23.80
2006,07,08,12,49,23.70
2006,07,08,12,50,23.80
2006,07,08,12,51,23.90
2006,07,08,12,52,23.90
2006,07,08,12,53,24.00
2006,07,08,12,54,24.10
2006,07,08,12,55,24.20
2006,07,08,12,56,24.20
2006,07,08,12,57,24.10
2006,07,08,12,58,24.10
2006,07,08,12,59,23.90
2006,07,08,13,00,23.90
2006,07,08,13,01,23.90
2006,07,08,13,02,24.00
2006,07,08,13,03,24.10
2006,07,08,13,04,24.10
2006,07,08,13,05,23.90
2006,07,08,13,06,23.90
2006,07,08,13,07,23.80
2006,07,08,13,08,23.70
2006,07,08,13,09,23.70
2006,07,08,13,10,23.70
2006,07,08,13,11,23.70
2006,07,08,13,12,23.80
2006,07,08,13,13,23.80
2006,07,08,13,14,23.90
2006,07,08,13,15,24.00
2006,07,08,13,16,24.10
2006,07,08,13,17,24.10
2006,07,08,13,18,24.10
2006,07,08,13,19,24.10
2006,07,08,13,20,24.00
2006,07,08,13,21,23.90
2006,07,08,13,22,23.80
2006,07,08,13,23,23.90
2006,07,08,13,24,23.90
2006,07,08,13,25,23.80
2006,07,08,13,26,23.60
2006,07,08,13,27,23.50
2006,07,08,13,28,23.40
2006,07,08,13,29,23.40
2006,07,08,13,30,23.30
2006,07,08,13,31,23.20
2006,07,08,13,32,23.30
2006,07,08,13,33,23.20
2006,07,08,13,34,23.10
2006,07,08,13,35,23.10
2006,07,08,13,36,23.10
2006,07,08,13,37,23.10
2006,07,08,13,38,23.00
2006,07,08,13,39,22.90
2006,07,08,13,40,22.90
2006,07,08,13,41,22.90
2006,07,08,13,42,22.80
2006,07,08,13,43,22.80
2006,07,08,13,44,22.80
2006,07,08,13,45,22.70
2006,07,08,13,46,22.60
2006,07,08,13,47,22.60
2006,07,08,13,48,22.70
2006,07,08,13,49,22.80
2006,07,08,13,50,22.80
2006,07,08,13,51,22.80
2006,07,08,13,52,22.80
2006,07,08,13,53,22.70
2006,07,08,13,54,22.70
2006,07,08,13,55,22.70
2006,07,08,13,56,22.70
2006,07,08,13,57,23.00
2006,07,08,13,58,23.10
2006,07,08,13,59,23.00
2006,07,08,14,00,22.90
2006,07,08,14,01,22.90
2006,07,08,14,02,22.90
2006,07,08,14,03,23.00
2006,07,08,14,04,23.10
2006,07,08,14,05,23.10
2006,07,08,14,06,23.10
2006,07,08,14,07,23.10
2006,07,08,14,08,23.10
2006,07,08,14,09,23.30
2006,07,08,14,10,23.30
2006,07,08,14,11,23.30
2006,07,08,14,12,23.30
2006,07,08,14,13,23.30
2006,07,08,14,14,23.30
2006,07,08,14,15,23.20
2006,07,08,14,16,23.20
2006,07,08,14,17,23.20
2006,07,08,14,18,23.30
2006,07,08,14,19,23.30
2006,07,08,14,20,23.30
2006,07,08,14,21,23.30
2006,07,08,14,22,23.30
2006,07,08,14,23,23.30
2006,07,08,14,24,23.30
2006,07,08,14,25,23.30
2006,07,08,14,26,23.30
2006,07,08,14,27,23.30
2006,07,08,14,28,23.20
2006,07,08,14,29,23.20
2006,07,08,14,30,23.20
2006,07,08,14,31,23.30
2006,07,08,14,32,23.30
2006,07,08,14,33,23.30
2006,07,08,14,34,23.40
2006,07,08,14,35,23.60
2006,07,08,14,36,23.70
2006,07,08,14,37,23.70
2006,07,08,14,38,23.70
2006,07,08,14,39,23.60
2006,07,08,14,40,23.40
2006,07,08,14,41,23.30
2006,07,08,14,42,23.30
2006,07,08,14,43,23.30
2006,07,08,14,44,23.30
2006,07,08,14,45,23.30
2006,07,08,14,46,23.50
2006,07,08,14,47,23.70
2006,07,08,14,48,23.70
2006,07,08,14,49,23.70
2006,07,08,14,50,23.70
2006,07,08,14,51,23.70
2006,07,08,14,52,23.70
2006,07,08,14,53,23.70
2006,07,08,14,54,23.70
2006,07,08,14,55,23.70
2006,07,08,14,56,23.80
2006,07,08,14,57,23.90
2006,07,08,14,58,24.10
2006,07,08,14,59,24.20
2006,07,08,15,00,24.30
2006,07,08,15,01,24.30
2006,07,08,15,02,24.30
2006,07,08,15,03,24.40
2006,07,08,15,04,24.50
2006,07,08,15,05,24.60
2006,07,08,15,06,24.70
2006,07,08,15,07,24.80
2006,07,08,15,08,24.80
2006,07,08,15,09,24.90
2006,07,08,15,10,24.90
2006,07,08,15,11,25.00
2006,07,08,15,12,25.10
2006,07,08,15,13,25.20
2006,07,08,15,14,25.30
2006,07,08,15,15,25.20
2006,07,08,15,16,25.10
2006,07,08,15,17,25.00
2006,07,08,15,18,24.80
2006,07,08,15,19,24.70
2006,07,08,15,20,24.80
2006,07,08,15,21,24.80
2006,07,08,15,22,24.80
2006,07,08,15,23,24.80
2006,07,08,15,24,24.80
2006,07,08,15,25,24.90
2006,07,08,15,26,24.90
2006,07,08,15,27,25.00
2006,07,08,15,28,25.10
2006,07,08,15,29,25.30
2006,07,08,15,30,25.40
2006,07,08,15,31,25.50
2006,07,08,15,32,25.50
2006,07,08,15,33,25.40
2006,07,08,15,34,25.40
2006,07,08,15,35,25.30
2006,07,08,15,36,25.30
2006,07,08,15,37,25.30
2006,07,08,15,38,25.10
2006,07,08,15,39,25.00
2006,07,08,15,40,25.00
2006,07,08,15,41,25.00
2006,07,08,15,42,25.00
2006,07,08,15,43,25.10
2006,07,08,15,44,25.10
2006,07,08,15,45,25.10
2006,07,08,15,46,25.10
2006,07,08,15,47,25.00
2006,07,08,15,48,25.00
2006,07,08,15,49,25.10
2006,07,08,15,50,25.20
2006,07,08,15,51,25.20
2006,07,08,15,52,25.20
2006,07,08,15,53,25.30
2006,07,08,15,54,25.40
2006,07,08,15,55,25.60
2006,07,08,15,56,25.60
2006,07,08,15,57,25.70
2006,07,08,15,58,25.70
2006,07,08,15,59,25.60
2006,07,08,16,00,25.60
2006,07,08,16,01,25.70
2006,07,08,16,02,25.80
2006,07,08,16,03,25.80
2006,07,08,16,04,25.80
2006,07,08,16,05,25.50
2006,07,08,16,06,25.40
2006,07,08,16,07,25.40
2006,07,08,16,08,25.40
2006,07,08,16,09,25.30
2006,07,08,16,10,25.30
2006,07,08,16,11,25.40
2006,07,08,16,12,25.40
2006,07,08,16,13,25.50
2006,07,08,16,14,25.70
2006,07,08,16,15,25.80
2006,07,08,16,16,25.90
2006,07,08,16,17,25.90
2006,07,08,16,18,26.30
2006,07,08,16,19,26.30
2006,07,08,16,20,26.30
2006,07,08,16,21,26.40
2006,07,08,16,22,26.40
2006,07,08,16,23,26.20
2006,07,08,16,24,26.10
2006,07,08,16,25,26.00
2006,07,08,16,26,26.00
2006,07,08,16,27,26.00
2006,07,08,16,28,25.90
2006,07,08,16,29,26.00
2006,07,08,16,30,26.10
2006,07,08,16,31,26.10
2006,07,08,16,32,26.20
2006,07,08,16,33,26.20
2006,07,08,16,34,26.20
2006,07,08,16,35,26.30
2006,07,08,16,36,26.40
2006,07,08,16,37,26.50
2006,07,08,16,38,26.60
2006,07,08,16,39,26.60
2006,07,08,16,40,26.60
2006,07,08,16,41,26.60
2006,07,08,16,42,26.50
2006,07,08,16,43,26.40
2006,07,08,16,44,26.30
2006,07,08,16,45,26.40
2006,07,08,16,46,26.40
2006,07,08,16,47,26.30
2006,07,08,16,48,26.20
2006,07,08,16,49,26.20
2006,07,08,16,50,26.20
2006,07,08,16,51,26.10
2006,07,08,16,52,26.00
2006,07,08,16,53,26.00
2006,07,08,16,54,26.00
2006,07,08,16,55,26.10
2006,07,08,16,56,26.10
2006,07,08,16,57,26.30
2006,07,08,16,58,26.40
2006,07,08,16,59,26.40
2006,07,08,17,00,26.40
2006,07,08,17,01,26.40
2006,07,08,17,02,26.30
2006,07,08,17,03,26.20
2006,07,08,17,04,26.10
2006,07,08,17,05,25.90
2006,07,08,17,06,25.80
2006,07,08,17,07,25.80
2006,07,08,17,08,25.80
2006,07,08,17,09,25.80
2006,07,08,17,10,25.80
2006,07,08,17,11,25.70
2006,07,08,17,12,25.70
2006,07,08,17,13,25.80
2006,07,08,17,14,25.80
2006,07,08,17,15,25.70
2006,07,08,17,16,25.60
2006,07,08,17,17,25.60
2006,07,08,17,18,25.60
2006,07,08,17,19,25.60